TimeEST,TemperatureF,Dew PointF,Humidity,Sea Level PressureIn,VisibilityMPH,Wind Direction,Wind SpeedMPH,Gust SpeedMPH,PrecipitationIn,Events,Conditions,WindDirDegrees,DateUTC
12:53 AM,57.0,55.9,96,30.26,-9999.0,Calm,Calm,-,N/A,,Unknown,0,2012-12-04 05:53:00
1:53 AM,55.9,55.0,97,30.26,-9999.0,Calm,Calm,-,N/A,,Unknown,0,2012-12-04 06:53:00
2:53 AM,54.0,53.1,97,30.25,-9999.0,Calm,Calm,-,N/A,,Unknown,0,2012-12-04 07:53:00
3:53 AM,52.0,51.1,97,30.25,-9999.0,Calm,Calm,-,N/A,,Unknown,0,2012-12-04 08:53:00
4:53 AM,51.1,50.0,96,30.25,-9999.0,Calm,Calm,-,N/A,,Unknown,0,2012-12-04 09:53:00
5:53 AM,50.0,50.0,100,30.26,-9999.0,Calm,Calm,-,N/A,,Unknown,0,2012-12-04 10:53:00
6:53 AM,48.9,48.0,97,30.28,-9999.0,Calm,Calm,-,N/A,,Unknown,0,2012-12-04 11:53:00
7:53 AM,51.1,50.0,96,30.30,-9999.0,Calm,Calm,-,N/A,,Unknown,0,2012-12-04 12:53:00
8:53 AM,62.1,60.1,93,30.31,-9999.0,Calm,Calm,-,N/A,,Unknown,0,2012-12-04 13:53:00
9:53 AM,68.0,61.0,78,30.33,-9999.0,SE,3.5,-,N/A,,Unknown,130,2012-12-04 14:53:00
10:53 AM,72.0,59.0,64,30.32,-9999.0,SE,4.6,-,N/A,,Unknown,130,2012-12-04 15:53:00
11:53 AM,75.0,57.0,53,30.29,-9999.0,Variable,4.6,-,N/A,,Unknown,0,2012-12-04 16:53:00
12:53 PM,78.1,55.0,45,30.26,-9999.0,Variable,4.6,-,N/A,,Unknown,0,2012-12-04 17:53:00
1:53 PM,-9999,-9999,N/A,30.23,-9999.0,NE,5.8,-,N/A,,Unknown,50,2012-12-04 18:53:00
2:53 PM,-9999,-9999,N/A,30.22,-9999.0,ESE,3.5,-,N/A,,Unknown,110,2012-12-04 19:53:00
3:53 PM,-9999,-9999,N/A,30.22,-9999.0,Calm,Calm,-,N/A,,Unknown,0,2012-12-04 20:53:00
4:53 PM,-9999,-9999,N/A,30.22,-9999.0,Calm,Calm,-,N/A,,Unknown,0,2012-12-04 21:53:00
5:53 PM,-9999,-9999,N/A,30.22,-9999.0,WSW,3.5,-,N/A,,Unknown,240,2012-12-04 22:53:00
6:53 PM,-9999,-9999,N/A,30.22,-9999.0,Calm,Calm,-,N/A,,Unknown,0,2012-12-04 23:53:00
7:53 PM,-9999,-9999,N/A,30.23,-9999.0,Calm,Calm,-,N/A,,Unknown,0,2012-12-05 00:53:00
8:53 PM,-9999,-9999,N/A,30.25,-9999.0,Calm,Calm,-,N/A,,Unknown,0,2012-12-05 01:53:00
9:53 PM,-9999,-9999,N/A,30.23,-9999.0,North,-9999.0,-,N/A,,Unknown,0,2012-12-05 02:53:00
10:53 PM,-9999,-9999,N/A,30.23,-9999.0,North,-9999.0,-,N/A,,Unknown,0,2012-12-05 03:53:00
11:53 PM,-9999,-9999,N/A,30.23,-9999.0,Calm,Calm,-,N/A,,Unknown,0,2012-12-05 04:53:00